SL-16 R/B (23405 NORAD) Tracking and Keplerian Element Data

This shows tracking and keplerian element data for the satellite.

Feedback or suggestion? Click here.




ElementValue
Catalog23405
NameSL-16 R/B
Epoch Orbit50490
Epoch Day12.94011687
Epoch Year2024
RAAN207.4063
Inclination70.9806
Eccentricity0.0004771
Argument of Perigee273.6795
Mean Anonmoly86.3782
Mean Motion14.1535283
Decay Rate1.25E-06
L11 23405U 94077B 24012.94011687 .00000125 00000+0 88626-4 0 9997
L22 23405 70.9806 207.4063 0004771 273.6795 86.3782 14.15352830504900



Live tracking and technical data element details for SL-16 R/B (NORAD 23405). SL-16 R/B can be tracked NOW for your location showing map with azimuth and elevation plus other details from your city location.







IsCatalogInMostPopularTable: catalog: 23405, numindb: 456
Update: records affected: 1



GetName: 23405 SL-16 R/B

Hit Count: updated at: Sun, 14 Apr 2024 23:48:15 GMT